| time (UTC) | temp F | wind direction | speed knots | gust knots | rain 1hr in | rain 24hr in | rain mn in | humidity % | barometer mb |
| 20260505031525 | 64 | 167 | 2.6 | 7.0 | 0.00 | 0.00 | 0.00 | 35 | 1016.2 |
| 20260505030021 | 65 | 227 | 0.9 | 4.3 | 0.00 | 0.00 | 0.00 | 34 | 1016.4 |
| 20260505024535 | 65 | 150 | 1.7 | 5.2 | 0.00 | 0.00 | 0.00 | 33 | 1016.5 |
| 20260505023015 | 66 | 148 | 0.9 | 4.3 | 0.00 | 0.00 | 0.00 | 33 | 1016.3 |
| 20260505021514 | 67 | 161 | 0.9 | 2.6 | 0.00 | 0.00 | 0.00 | 32 | 1016.2 |
| 20260505020011 | 67 | 200 | 0.9 | 2.6 | 0.00 | 0.00 | 0.00 | 32 | 1016.2 |
| 20260505014511 | 67 | 165 | 0.0 | 1.7 | 0.00 | 0.00 | 0.00 | 31 | 1016.1 |
| 20260505013018 | 67 | 137 | 0.9 | 3.5 | 0.00 | 0.00 | 0.00 | 31 | 1016.0 |
| 20260505011510 | 67 | 216 | 0.0 | 1.7 | 0.00 | 0.00 | 0.00 | 30 | 1015.6 |
| 20260505010009 | 68 | 218 | 0.9 | 2.6 | 0.00 | 0.00 | 0.00 | 29 | 1015.6 |
| 20260505004510 | 69 | 217 | 0.0 | 2.6 | 0.00 | 0.00 | 0.00 | 27 | 1015.5 |
| 20260505003013 | 70 | 218 | 0.0 | 3.5 | 0.00 | 0.00 | 0.00 | 26 | 1015.3 |
| 20260505001508 | 71 | 221 | 0.0 | 2.6 | 0.00 | 0.00 | 0.00 | 25 | 1015.3 |
| 20260505000024 | 72 | 200 | 0.9 | 4.3 | 0.00 | 0.00 | 0.00 | 24 | 1015.2 |
| 20260504234508 | 73 | 194 | 0.9 | 6.1 | 0.00 | 0.00 | 0.00 | 22 | 1015.0 |
| 20260504233010 | 73 | 196 | 0.9 | 7.8 | 0.00 | 0.00 | 0.00 | 21 | 1014.9 |
| 20260504231521 | 74 | 233 | 1.7 | 8.7 | 0.00 | 0.00 | 0.00 | 22 | 1014.8 |
| 20260504230016 | 74 | 150 | 2.6 | 7.0 | 0.00 | 0.00 | 0.00 | 21 | 1014.7 |
| 20260504224514 | 75 | 188 | 3.5 | 9.6 | 0.00 | 0.00 | 0.00 | 20 | 1014.8 |
| 20260504223010 | 75 | 209 | 1.7 | 7.8 | 0.00 | 0.00 | 0.00 | 19 | 1014.8 |
| 20260504221510 | 75 | 181 | 2.6 | 7.0 | 0.00 | 0.00 | 0.00 | 19 | 1014.7 |
| 20260504220012 | 75 | 123 | 1.7 | 7.8 | 0.00 | 0.00 | 0.00 | 18 | 1014.8 |
| 20260504214503 | 76 | 248 | 4.3 | 11.3 | 0.00 | 0.00 | 0.00 | 19 | 1014.8 |
| 20260504213009 | 76 | 261 | 4.3 | 10.4 | 0.00 | 0.00 | 0.00 | 18 | 1014.7 |
| 20260504211501 | 76 | 130 | 2.6 | 7.8 | 0.00 | 0.00 | 0.00 | 19 | 1014.7 |
| 20260504210001 | 76 | 186 | 2.6 | 9.6 | 0.00 | 0.00 | 0.00 | 19 | 1014.9 |
| 20260504204604 | 76 | 147 | 3.5 | 8.7 | 0.00 | 0.00 | 0.00 | 18 | 1015.0 |
| 20260504203103 | 76 | 242 | 4.3 | 9.6 | 0.00 | 0.00 | 0.00 | 16 | 1015.2 |
| 20260504201559 | 76 | 261 | 2.6 | 7.8 | 0.00 | 0.00 | 0.00 | 20 | 1015.4 |
| 20260504200100 | 75 | 216 | 1.7 | 7.0 | 0.00 | 0.00 | 0.00 | 22 | 1015.7 |
| 20260504194608 | 76 | 221 | 4.3 | 7.8 | 0.00 | 0.00 | 0.00 | 23 | 1015.7 |
| 20260504193053 | 75 | 199 | 2.6 | 7.8 | 0.00 | 0.00 | 0.00 | 22 | 1016.0 |
| 20260504191552 | 75 | 262 | 3.5 | 10.4 | 0.00 | 0.00 | 0.00 | 22 | 1015.9 |
| 20260504190114 | 74 | 294 | 5.2 | 10.4 | 0.00 | 0.00 | 0.00 | 24 | 1016.1 |
| 20260504184555 | 74 | 182 | 1.7 | 7.8 | 0.00 | 0.00 | 0.00 | 25 | 1016.4 |
| 20260504183046 | 75 | 200 | 1.7 | 5.2 | 0.00 | 0.00 | 0.00 | 25 | 1016.3 |
| 20260504181547 | 74 | 96 | 2.6 | 8.7 | 0.00 | 0.00 | 0.00 | 25 | 1016.7 |
| 20260504180114 | 75 | 261 | 1.7 | 3.5 | 0.00 | 0.00 | 0.00 | 22 | 1016.9 |
| 20260504174541 | 74 | 229 | 0.9 | 3.5 | 0.00 | 0.00 | 0.00 | 19 | 1016.9 |
| 20260504173039 | 73 | 43 | 2.6 | 5.2 | 0.00 | 0.00 | 0.00 | 18 | 1017.2 |
| 20260504171534 | 72 | 259 | 2.6 | 7.8 | 0.00 | 0.00 | 0.00 | 19 | 1017.4 |
| 20260504120113 | 48 | 265 | 0.0 | 0.0 | 0.00 | 0.00 | 0.00 | 62 | 1018.3 |
| 20260504081533 | 52 | 205 | 0.9 | 2.6 | 0.00 | 0.00 | 0.00 | 51 | 1018.0 |
| 20260504050014 | 57 | 178 | 1.7 | 6.1 | 0.00 | 0.00 | 0.00 | 43 | 1018.0 |
| 20260504044513 | 57 | 244 | 0.9 | 7.8 | 0.00 | 0.00 | 0.00 | 44 | 1018.4 |
| 20260504043013 | 57 | 136 | 0.9 | 4.3 | 0.00 | 0.00 | 0.00 | 44 | 1018.3 |
| 20260504041512 | 56 | 144 | 1.7 | 4.3 | 0.00 | 0.00 | 0.00 | 44 | 1018.4 |
| 20260504040012 | 57 | 149 | 0.0 | 4.3 | 0.00 | 0.00 | 0.00 | 44 | 1018.7 |
| 20260504034516 | 57 | 200 | 0.9 | 4.3 | 0.00 | 0.00 | 0.00 | 45 | 1018.7 |
| 20260504033010 | 57 | 183 | 0.9 | 2.6 | 0.00 | 0.00 | 0.00 | 44 | 1018.6 |